Adak, AK

12:46 AM HDT on June 25, 2017 (GMT -0900)
Adak

Weather History for PADK - April, 2014

Change the Weather History Date:

Wednesday, April 9, 2014

  Actual Average Record
Temperature  
Mean Temperature 38 °F -  
Max Temperature 42 °F 41 °F 48 °F (1972)
Min Temperature 35 °F 32 °F 21 °F (1993)
Degree Days  
Heating Degree Days 26    
Moisture  
Dew Point 35 °F    
Average Humidity 84    
Maximum Humidity 93    
Minimum Humidity 74    
Precipitation  
Precipitation 0.02 in - - ()
Sea Level Pressure  
Sea Level Pressure 29.25 in    
Wind  
Wind Speed 12 mph (South)    
Max Wind Speed 22 mph    
Max Gust Speed 29 mph    
Visibility 10 miles    
Events      
Averages and records for this station are not official NWS values.
T = Trace of Precipitation, MM = Missing Value Source: NWS Daily Summary

Daily Weather History Graph

Daily Weather History Graph

Search for Another Location

Airport or City:

Trip Planner

Search our weather history database for the weather conditions in past years. The results will help you decide how hot, cold, wet, or windy it might be!

Date:

Astronomy

Apr. 09, 2014 Rise Set
Actual Time 8:02 AM HDT 9:34 PM HDT
Civil Twilight 7:27 AM HDT 10:09 PM HDT
Nautical Twilight 6:44 AM HDT 10:52 PM HDT
Astronomical Twilight 5:57 AM HDT 11:40 PM HDT
Moon 4:01 PM HDT (4/9) 5:36 AM HDT (4/9)
Length of Visible Light 14h 41m
Length of Day
13h 31m
Waxing Gibbous, 73% of the Moon is Illuminated
Apr 9
Waxing Gibbous
Apr 14
Full
Apr 21
Last Quarter
Apr 28
New
May 6
First Quarter

Hourly Weather History & Observations

Time (HDT) Temp. Windchill Dew Point Humidity Pressure Visibility Wind Dir Wind Speed Gust Speed Precip Events Conditions
12:16 AM 39.2 °F 33.6 °F 35.6 °F 87% 29.31 in 10.0 mi South 8.1 mph - 0.01 in   Overcast
12:36 AM 39.2 °F 32.0 °F 35.6 °F 87% 29.30 in 10.0 mi South 11.5 mph - 0.02 in   Overcast
12:56 AM 37.4 °F 29.8 °F 35.6 °F 93% 29.30 in 8.0 mi South 11.5 mph 16.1 mph 0.04 in   Overcast
1:16 AM 39.2 °F 31.6 °F 35.6 °F 87% 29.30 in 8.0 mi South 12.7 mph 17.3 mph 0.02 in   Overcast
1:36 AM 39.2 °F 29.6 °F 35.6 °F 87% 29.30 in 10.0 mi South 19.6 mph 24.2 mph 0.03 in   Overcast
1:56 AM 37.4 °F 28.2 °F 35.6 °F 93% 29.29 in 10.0 mi South 16.1 mph 21.9 mph 0.04 in   Overcast
2:16 AM 37.4 °F 28.2 °F 35.6 °F 93% 29.29 in 9.0 mi SSE 16.1 mph 20.7 mph 0.01 in   Overcast
2:36 AM 37.4 °F 29.3 °F 33.8 °F 87% 29.28 in 10.0 mi SSE 12.7 mph 18.4 mph 0.01 in   Overcast
2:56 AM 37.4 °F 28.9 °F 33.8 °F 87% 29.27 in 10.0 mi South 13.8 mph - 0.02 in   Overcast
3:16 AM 37.4 °F 28.5 °F 35.6 °F 93% 29.26 in 10.0 mi SSE 15.0 mph - N/A   Overcast
3:36 AM 39.2 °F 35.0 °F 35.6 °F 87% 29.26 in 10.0 mi South 5.8 mph - N/A   Overcast
3:56 AM 39.2 °F - 35.6 °F 87% 29.26 in 10.0 mi Calm Calm - N/A   Overcast
4:16 AM 37.4 °F 34.9 °F 35.6 °F 93% 29.25 in 10.0 mi WSW 3.5 mph - N/A   Overcast
4:36 AM 37.4 °F 34.9 °F 35.6 °F 93% 29.25 in 10.0 mi SW 3.5 mph - N/A   Overcast
4:56 AM 37.4 °F 33.8 °F 35.6 °F 93% 29.25 in 10.0 mi SW 4.6 mph - N/A   Overcast
5:16 AM 37.4 °F 33.8 °F 35.6 °F 93% 29.25 in 10.0 mi WSW 4.6 mph - N/A   Overcast
5:36 AM 39.2 °F 31.2 °F 35.6 °F 87% 29.25 in 10.0 mi South 13.8 mph - N/A   Overcast
5:56 AM 39.2 °F 32.5 °F 35.6 °F 87% 29.25 in 10.0 mi South 10.4 mph - N/A   Overcast
6:16 AM 39.2 °F 30.8 °F 35.6 °F 87% 29.25 in 10.0 mi South 15.0 mph - N/A   Overcast
6:36 AM 39.2 °F 32.0 °F 35.6 °F 87% 29.25 in 10.0 mi South 11.5 mph - N/A   Mostly Cloudy
6:56 AM 39.2 °F 32.5 °F 35.6 °F 87% 29.26 in 10.0 mi South 10.4 mph - N/A   Overcast
7:16 AM 39.2 °F 33.0 °F 35.6 °F 87% 29.26 in 8.0 mi South 9.2 mph - N/A   Overcast
7:36 AM 39.2 °F 33.6 °F 35.6 °F 87% 29.26 in 10.0 mi South 8.1 mph - N/A   Overcast
7:56 AM 39.2 °F 30.5 °F 35.6 °F 87% 29.26 in 10.0 mi SSE 16.1 mph - N/A   Overcast
8:16 AM 39.2 °F 30.5 °F 35.6 °F 87% 29.26 in 9.0 mi SSE 16.1 mph - N/A   Overcast
8:36 AM 39.2 °F 31.2 °F 35.6 °F 87% 29.26 in 10.0 mi South 13.8 mph 19.6 mph N/A   Overcast
8:56 AM 39.2 °F 32.0 °F 35.6 °F 87% 29.26 in 10.0 mi South 11.5 mph - N/A   Overcast
9:16 AM 39.2 °F 30.2 °F 35.6 °F 87% 29.26 in 10.0 mi South 17.3 mph - N/A   Overcast
9:36 AM 41.0 °F 32.8 °F 35.6 °F 81% 29.26 in 10.0 mi South 16.1 mph 21.9 mph N/A   Overcast
9:56 AM 41.0 °F 33.9 °F 35.6 °F 81% 29.26 in 10.0 mi SSE 12.7 mph 19.6 mph N/A   Overcast
10:16 AM 41.0 °F 33.1 °F 35.6 °F 81% 29.27 in 10.0 mi SSE 15.0 mph - N/A   Overcast
10:36 AM 41.0 °F 33.1 °F 35.6 °F 81% 29.26 in 10.0 mi SSE 15.0 mph - N/A   Mostly Cloudy
10:56 AM 41.0 °F 33.1 °F 35.6 °F 81% 29.26 in 10.0 mi SSE 15.0 mph 18.4 mph N/A   Overcast
11:16 AM 42.8 °F 35.8 °F 37.4 °F 81% 29.26 in 10.0 mi SSE 13.8 mph - N/A   Overcast
11:36 AM 42.8 °F 35.1 °F 35.6 °F 76% 29.26 in 10.0 mi SSE 16.1 mph 20.7 mph N/A   Overcast
11:56 AM 42.8 °F 34.3 °F 35.6 °F 76% 29.26 in 9.0 mi SSE 19.6 mph 28.8 mph N/A   Mostly Cloudy
12:16 PM 41.0 °F 32.2 °F 35.6 °F 81% 29.25 in 7.0 mi SSE 18.4 mph 28.8 mph N/A   Mostly Cloudy
12:36 PM 39.2 °F 29.3 °F 35.6 °F 87% 29.26 in 10.0 mi South 20.7 mph 27.6 mph 0.01 in   Mostly Cloudy
12:56 PM 39.2 °F 30.8 °F 35.6 °F 87% 29.26 in 10.0 mi South 15.0 mph 25.3 mph 0.01 in   Mostly Cloudy
1:16 PM 41.0 °F 32.8 °F 35.6 °F 81% 29.26 in 10.0 mi SSE 16.1 mph 20.7 mph N/A   Overcast
1:36 PM 41.0 °F 31.9 °F 35.6 °F 81% 29.26 in 10.0 mi SSE 19.6 mph - N/A   Overcast
1:56 PM 39.2 °F 29.6 °F 35.6 °F 87% 29.26 in 8.0 mi South 19.6 mph 24.2 mph N/A   Overcast
2:16 PM 41.0 °F 32.5 °F 35.6 °F 81% 29.26 in 9.0 mi South 17.3 mph 20.7 mph 0.01 in   Overcast
2:36 PM 41.0 °F 33.9 °F 35.6 °F 81% 29.25 in 10.0 mi South 12.7 mph - 0.01 in   Overcast
2:56 PM 41.0 °F 33.5 °F 35.6 °F 81% 29.25 in 9.0 mi SSE 13.8 mph 19.6 mph 0.01 in   Overcast
3:16 PM 41.0 °F 32.8 °F 35.6 °F 81% 29.25 in 10.0 mi South 16.1 mph - N/A   Overcast
3:36 PM 41.0 °F 31.9 °F 35.6 °F 81% 29.25 in 10.0 mi SSE 19.6 mph 25.3 mph N/A   Overcast
3:56 PM 41.0 °F 31.9 °F 35.6 °F 81% 29.24 in 10.0 mi SSE 19.6 mph 24.2 mph N/A   Mostly Cloudy
4:16 PM 42.8 °F 35.4 °F 37.4 °F 81% 29.24 in 10.0 mi South 15.0 mph - N/A   Overcast
4:36 PM 41.0 °F 32.5 °F 35.6 °F 81% 29.24 in 10.0 mi SSE 17.3 mph - N/A   Overcast
4:56 PM 42.8 °F 35.4 °F 37.4 °F 81% 29.24 in 10.0 mi SSE 15.0 mph - N/A   Overcast
5:16 PM 42.8 °F 35.4 °F 35.6 °F 76% 29.24 in 10.0 mi SSE 15.0 mph - N/A   Overcast
5:36 PM 41.0 °F 33.1 °F 35.6 °F 81% 29.23 in 10.0 mi SSE 15.0 mph 20.7 mph N/A   Overcast
5:56 PM 41.0 °F 33.9 °F 35.6 °F 81% 29.23 in 10.0 mi South 12.7 mph - N/A   Overcast
6:16 PM 41.0 °F 33.1 °F 35.6 °F 81% 29.23 in 10.0 mi SSE 15.0 mph - N/A   Overcast
6:36 PM 41.0 °F 32.5 °F 33.8 °F 76% 29.22 in 10.0 mi SSE 17.3 mph - N/A   Mostly Cloudy
6:56 PM 41.0 °F 31.9 °F 33.8 °F 76% 29.22 in 10.0 mi SSE 19.6 mph 24.2 mph N/A   Overcast
7:16 PM 39.2 °F 32.5 °F 33.8 °F 81% 29.22 in 10.0 mi SSE 10.4 mph - N/A   Overcast
7:36 PM 39.2 °F 33.0 °F 33.8 °F 81% 29.22 in 10.0 mi SSE 9.2 mph - N/A   Overcast
7:56 PM 39.2 °F 33.6 °F 33.8 °F 81% 29.22 in 10.0 mi SSE 8.1 mph 18.4 mph N/A   Overcast
8:16 PM 39.2 °F 31.6 °F 33.8 °F 81% 29.22 in 10.0 mi South 12.7 mph 19.6 mph N/A   Overcast
8:36 PM 39.2 °F 32.0 °F 35.6 °F 87% 29.22 in 10.0 mi South 11.5 mph - N/A   Overcast
8:56 PM 37.4 °F 29.8 °F 32.0 °F 81% 29.23 in 7.0 mi SSE 11.5 mph - N/A   Overcast
9:16 PM 37.4 °F 30.3 °F 33.8 °F 87% 29.23 in 10.0 mi SSE 10.4 mph - N/A   Overcast
9:36 PM 37.4 °F 32.8 °F 33.8 °F 87% 29.23 in 10.0 mi South 5.8 mph - N/A   Overcast
9:56 PM 39.2 °F 32.5 °F 35.6 °F 87% 29.23 in 10.0 mi SSE 10.4 mph - N/A   Overcast
10:16 PM 39.2 °F 31.6 °F 33.8 °F 81% 29.24 in 10.0 mi SSE 12.7 mph - N/A   Overcast
10:36 PM 39.2 °F 32.0 °F 33.8 °F 81% 29.24 in 10.0 mi SSE 11.5 mph - N/A   Overcast
10:56 PM 39.2 °F 33.0 °F 33.8 °F 81% 29.24 in 10.0 mi SSE 9.2 mph - N/A   Overcast
11:16 PM 39.2 °F 31.6 °F 33.8 °F 81% 29.25 in 10.0 mi SSE 12.7 mph - N/A   Mostly Cloudy
11:36 PM 39.2 °F 31.2 °F 33.8 °F 81% 29.25 in 10.0 mi SSE 13.8 mph - N/A   Overcast
11:56 PM 39.2 °F 29.0 °F 33.8 °F 81% 29.25 in 10.0 mi SSE 21.9 mph 26.5 mph N/A   Overcast